Location: Blairvadach
(56.2780°N, 6.9720°W)
Time: 08:11:43
(UTC+00:00)

Envisat - Visible Passes

Search period start: 14 November 2019 00:00
Search period end: 24 November 2019 00:00
Orbit: 764 x 766 km, 98.1° (Epoch: 13 November)

Date Brightness Start Highest point End Pass type
(mag) Time Alt. Az. Time Alt. Az. Time Alt. Az.
14 Nov 6.2 05:46:20 10° NE 05:48:29 13° E 05:50:38 10° ESE visible
14 Nov 3.6 17:07:33 10° SE 17:12:09 36° ENE 17:16:46 10° N visible
14 Nov 4.0 18:46:11 10° S 18:51:06 49° W 18:56:03 10° NNW visible
15 Nov 4.9 06:46:56 10° NNE 06:51:35 34° E 06:56:13 10° SSE visible
15 Nov 3.0 18:09:07 10° SSE 18:14:13 88° WSW 18:19:21 10° NNW visible
15 Nov 5.7 19:50:34 10° SW 19:53:59 18° W 19:57:27 10° NW visible
16 Nov 5.9 06:10:45 10° NE 06:14:24 19° E 06:18:01 10° SE visible
16 Nov 3.1 17:32:35 10° SE 17:37:30 52° ENE 17:42:27 10° N visible
16 Nov 4.8 19:12:15 10° SSW 19:16:47 32° W 19:21:21 10° NNW visible
17 Nov 6.5 05:36:24 10° ENE 05:37:01 10° E 05:37:36 10° E visible
17 Nov 4.0 07:12:16 10° NNE 07:17:16 53° E 07:22:14 10° S visible
17 Nov 3.7 16:56:33 10° ESE 17:00:58 31° ENE 17:05:24 10° N visible
17 Nov 3.6 18:34:45 10° S 18:39:46 58° WSW 18:44:49 10° NNW visible
17 Nov 6.2 20:18:14 10° W 20:19:56 12° W 20:21:38 10° WNW visible
18 Nov 5.2 06:35:47 10° NNE 06:40:13 29° E 06:44:37 10° SSE visible
18 Nov 2.9 17:57:51 10° SSE 18:02:56 79° ENE 18:08:03 10° NNW visible
18 Nov 5.4 19:38:43 10° SW 19:42:34 21° W 19:46:27 10° NW visible
19 Nov 6.0 05:59:49 10° NE 06:02:58 16° E 06:06:06 10° ESE visible
19 Nov 3.3 17:21:28 10° SE 17:26:17 45° ENE 17:31:07 10° N visible
19 Nov 4.4 19:00:42 10° SSW 19:05:25 38° W 19:10:11 10° NNW visible
20 Nov 4.4 07:01:02 10° NNE 07:05:55 44° E 07:10:47 10° S visible
20 Nov 3.9 16:45:35 10° ESE 16:49:48 27° NE 16:54:01 10° N visible
20 Nov 3.3 18:23:24 10° S 18:28:27 70° WSW 18:33:34 10° NNW visible
20 Nov 6.0 20:05:50 10° WSW 20:08:28 14° W 20:11:06 10° NW visible
21 Nov 5.5 06:24:40 10° NE 06:28:50 25° E 06:32:57 10° SE visible
21 Nov 2.9 17:46:39 10° SSE 17:51:41 66° ENE 17:56:45 10° NNW visible
21 Nov 5.2 19:26:59 10° SW 19:31:10 25° W 19:35:23 10° NW visible
22 Nov 6.1 05:49:01 10° NE 05:51:31 14° E 05:53:59 10° ESE visible
22 Nov 3.5 07:26:27 10° NNE 07:31:32 68° ESE 07:36:36 10° S visible
22 Nov 3.5 17:10:24 10° SE 17:15:04 38° ENE 17:19:46 10° N visible
22 Nov 4.1 18:49:12 10° S 18:54:05 46° W 18:58:59 10° NNW visible
23 Nov 4.7 06:49:50 10° NNE 06:54:34 37° E 06:59:16 10° SSE visible
23 Nov 3.0 18:12:04 10° SSE 18:17:10 83° WSW 18:22:17 10° NNW visible
23 Nov 5.8 19:53:46 10° SW 19:57:01 17° W 20:00:16 10° NW visible
